• In Österreich
  • Länderverzeichnis
  • Für 7 Tage
  • Wassertemperatur
  • Satellitenkarten
  • Wetterkarte
  • News
  • Widgets
  • user-avatar
    Anmelden

    Stündliche Wetter Eremkovichi

    Heute, 19 Oktober, Freitag

    Zeit Temperatur Niederschläge Wind Luftdruck Luftfeuchtigkeit
    00:00 +13°C° 0 mm 2 m/S 748 mmHg 90%
    01:00 +13°C° 0 mm 2 m/S 748 mmHg 90%
    02:00 +12°C° 0 mm 2 m/S 748 mmHg 91%
    03:00 +12°C° 0 mm 2 m/S 747 mmHg 91%
    04:00 +12°C° 0 mm 2 m/S 747 mmHg 91%
    05:00 +10°C° 0 mm 2 m/S 747 mmHg 91%
    06:00 +11°C° 0 mm 1 m/S 747 mmHg 91%
    07:00 +12°C° 0 mm 1 m/S 747 mmHg 90%
    08:00 +12°C° 0 mm 1 m/S 747 mmHg 90%
    09:00 +13°C° 0 mm 2 m/S 747 mmHg 85%
    10:00 +14°C° 0 mm 2 m/S 747 mmHg 80%
    11:00 +16°C° 0 mm 2 m/S 748 mmHg 75%
    12:00 +16°C° 0 mm 2 m/S 748 mmHg 74%
    13:00 +16°C° 0 mm 3 m/S 748 mmHg 72%
    14:00 +17°C° 0 mm 3 m/S 748 mmHg 70%
    15:00 +14°C° 0 mm 3 m/S 748 mmHg 75%
    16:00 +13°C° 0 mm 3 m/S 748 mmHg 80%
    17:00 +12°C° 0 mm 3 m/S 748 mmHg 84%
    18:00 +12°C° 0 mm 3 m/S 749 mmHg 84%
    19:00 +11°C° 0 mm 3 m/S 749 mmHg 84%
    20:00 +11°C° 0 mm 3 m/S 749 mmHg 84%
    21:00 +10°C° 0 mm 3 m/S 750 mmHg 85%
    22:00 +9°C° 0 mm 3 m/S 750 mmHg 85%
    23:00 +8°C° 0 mm 2 m/S 750 mmHg 86%

    Morgen, 20 Oktober, Samstag

    Zeit Temperatur Niederschläge Wind Luftdruck Luftfeuchtigkeit
    00:00 +7°C° 0 mm 2 m/S 750 mmHg 86%
    01:00 +7°C° 0 mm 2 m/S 750 mmHg 86%
    02:00 +6°C° 0 mm 2 m/S 750 mmHg 87%
    03:00 +5°C° 0 mm 2 m/S 750 mmHg 87%
    04:00 +5°C° 0 mm 2 m/S 750 mmHg 87%
    05:00 +5°C° 0 mm 2 m/S 750 mmHg 88%
    06:00 +5°C° 0 mm 2 m/S 751 mmHg 86%
    07:00 +5°C° 0 mm 2 m/S 751 mmHg 85%
    08:00 +5°C° 0 mm 2 m/S 751 mmHg 83%
    09:00 +7°C° 0 mm 2 m/S 751 mmHg 77%
    10:00 +8°C° 0 mm 2 m/S 751 mmHg 70%
    11:00 +9°C° 0 mm 2 m/S 751 mmHg 63%
    12:00 +10°C° 0 mm 2 m/S 751 mmHg 60%
    13:00 +10°C° 0 mm 2 m/S 751 mmHg 57%
    14:00 +12°C° 0 mm 1 m/S 751 mmHg 54%
    15:00 +11°C° 0 mm 1 m/S 750 mmHg 59%
    16:00 +9°C° 0 mm 1 m/S 750 mmHg 64%
    17:00 +8°C° 0 mm 1 m/S 750 mmHg 69%
    18:00 +8°C° 0 mm 1 m/S 750 mmHg 71%
    19:00 +7°C° 0 mm 1 m/S 750 mmHg 73%
    20:00 +7°C° 0 mm 1 m/S 750 mmHg 76%
    21:00 +6°C° 0 mm 1 m/S 750 mmHg 77%
    22:00 +6°C° 0 mm 1 m/S 750 mmHg 79%
    23:00 +5°C° 0 mm 1 m/S 750 mmHg 81%

    übermorgen, 21 Oktober, Sonntag

    Zeit Temperatur Niederschläge Wind Luftdruck Luftfeuchtigkeit
    00:00 +5°C° 0 mm 1 m/S 750 mmHg 82%
    01:00 +5°C° 0 mm 1 m/S 750 mmHg 84%
    02:00 +5°C° 0 mm 1 m/S 750 mmHg 85%
    03:00 +4°C° 0 mm 1 m/S 750 mmHg 86%
    04:00 +4°C° 0 mm 1 m/S 750 mmHg 88%
    05:00 +4°C° 0 mm 1 m/S 750 mmHg 89%
    06:00 +4°C° 0 mm 1 m/S 750 mmHg 88%
    07:00 +3°C° 0 mm 2 m/S 750 mmHg 87%
    08:00 +3°C° 0 mm 2 m/S 751 mmHg 86%
    09:00 +5°C° 0 mm 2 m/S 751 mmHg 80%
    10:00 +6°C° 0 mm 2 m/S 751 mmHg 74%
    11:00 +8°C° 0 mm 2 m/S 751 mmHg 68%
    12:00 +8°C° 0 mm 2 m/S 751 mmHg 66%
    13:00 +9°C° 0 mm 2 m/S 751 mmHg 64%
    14:00 +9°C° 0 mm 2 m/S 751 mmHg 62%
    15:00 +8°C° 0 mm 2 m/S 751 mmHg 67%
    16:00 +7°C° 0 mm 2 m/S 751 mmHg 73%
    17:00 +6°C° 0 mm 2 m/S 751 mmHg 79%
    18:00 +5°C° 0 mm 2 m/S 752 mmHg 81%
    19:00 +5°C° 0 mm 2 m/S 752 mmHg 84%
    20:00 +4°C° 0 mm 2 m/S 752 mmHg 86%
    21:00 +4°C° 0 mm 2 m/S 752 mmHg 88%
    22:00 +4°C° 0 mm 2 m/S 752 mmHg 89%
    23:00 +4°C° 0 mm 1 m/S 752 mmHg 91%

    22 Oktober, Montag

    Zeit Temperatur Niederschläge Wind Luftdruck Luftfeuchtigkeit
    00:00 +4°C° 0 mm 1 m/S 752 mmHg 91%
    01:00 +4°C° 0 mm 1 m/S 752 mmHg 91%
    02:00 +4°C° 0 mm 1 m/S 752 mmHg 92%
    03:00 +3°C° 0 mm 1 m/S 752 mmHg 92%
    04:00 +2°C° 0 mm 0 m/S 752 mmHg 92%
    05:00 +2°C° 0 mm 0 m/S 752 mmHg 92%
    06:00 +2°C° 0 mm 0 m/S 752 mmHg 91%
    07:00 +2°C° 0 mm 0 m/S 752 mmHg 90%
    08:00 +3°C° 0 mm 0 m/S 752 mmHg 90%
    09:00 +5°C° 0 mm 1 m/S 751 mmHg 82%
    10:00 +7°C° 0 mm 1 m/S 751 mmHg 75%
    11:00 +8°C° 0 mm 1 m/S 751 mmHg 67%
    12:00 +8°C° 0 mm 2 m/S 750 mmHg 64%
    13:00 +9°C° 0 mm 2 m/S 750 mmHg 61%
    14:00 +9°C° 0 mm 2 m/S 749 mmHg 57%
    15:00 +8°C° 0 mm 2 m/S 749 mmHg 62%
    16:00 +7°C° 0 mm 2 m/S 748 mmHg 67%
    17:00 +6°C° 0 mm 2 m/S 748 mmHg 71%
    18:00 +5°C° 0 mm 2 m/S 748 mmHg 73%
    19:00 +5°C° 0 mm 2 m/S 748 mmHg 75%
    20:00 +4°C° 0 mm 2 m/S 747 mmHg 76%
    21:00 +4°C° 0 mm 2 m/S 747 mmHg 79%
    22:00 +4°C° 0 mm 2 m/S 746 mmHg 81%
    23:00 +4°C° 0 mm 2 m/S 746 mmHg 83%

    23 Oktober, Dienstag

    Zeit Temperatur Niederschläge Wind Luftdruck Luftfeuchtigkeit
    00:00 +3°C° 0 mm 2 m/S 746 mmHg 85%
    01:00 +3°C° 0 mm 2 m/S 745 mmHg 88%
    02:00 +3°C° 0 mm 2 m/S 745 mmHg 90%
    03:00 +3°C° 0 mm 2 m/S 745 mmHg 91%
    04:00 +3°C° 0 mm 2 m/S 744 mmHg 92%
    05:00 +2°C° 0 mm 2 m/S 744 mmHg 93%
    06:00 +3°C° 0.1 mm 2 m/S 744 mmHg 93%
    07:00 +3°C° 0.1 mm 2 m/S 744 mmHg 93%
    08:00 +4°C° 0.1 mm 2 m/S 744 mmHg 93%
    09:00 +4°C° 0.1 mm 3 m/S 744 mmHg 89%
    10:00 +4°C° 0.1 mm 3 m/S 744 mmHg 85%
    11:00 +5°C° 0.1 mm 4 m/S 744 mmHg 81%
    12:00 +6°C° 0 mm 4 m/S 744 mmHg 76%
    13:00 +7°C° 0 mm 3 m/S 743 mmHg 70%
    14:00 +8°C° 0 mm 3 m/S 743 mmHg 64%
    15:00 +7°C° 0 mm 3 m/S 743 mmHg 68%
    16:00 +5°C° 0 mm 3 m/S 743 mmHg 71%
    17:00 +4°C° 0 mm 2 m/S 742 mmHg 75%
    18:00 +4°C° 0 mm 2 m/S 742 mmHg 77%
    19:00 +3°C° 0 mm 2 m/S 742 mmHg 79%
    20:00 +2°C° 0 mm 3 m/S 741 mmHg 81%
    21:00 +2°C° 0 mm 3 m/S 741 mmHg 83%
    22:00 +2°C° 0 mm 3 m/S 740 mmHg 86%
    23:00 0°C° 0 mm 4 m/S 740 mmHg 88%

    24 Oktober, Mittwoch

    Zeit Temperatur Niederschläge Wind Luftdruck Luftfeuchtigkeit
    00:00 0°C° 0 mm 4 m/S 739 mmHg 89%
    01:00 0°C° 0 mm 5 m/S 738 mmHg 89%
    02:00 0°C° 0 mm 5 m/S 737 mmHg 90%
    03:00 -1°C° 0 mm 6 m/S 735 mmHg 89%
    04:00 -1°C° 0 mm 6 m/S 734 mmHg 88%
    05:00 -1°C° 0 mm 7 m/S 733 mmHg 87%
    06:00 0°C° 0.1 mm 7 m/S 732 mmHg 86%
    07:00 0°C° 0.1 mm 8 m/S 731 mmHg 84%
    08:00 +1°C° 0.1 mm 8 m/S 730 mmHg 83%
    09:00 +1°C° 0.3 mm 8 m/S 730 mmHg 81%
    10:00 +1°C° 0.3 mm 8 m/S 729 mmHg 80%
    11:00 +2°C° 0.3 mm 9 m/S 729 mmHg 79%
    12:00 +2°C° 0.5 mm 8 m/S 728 mmHg 78%
    13:00 +2°C° 0.5 mm 8 m/S 728 mmHg 78%
    14:00 +3°C° 0.5 mm 7 m/S 727 mmHg 78%
    15:00 +3°C° 0.4 mm 7 m/S 727 mmHg 79%
    16:00 +3°C° 0.4 mm 6 m/S 727 mmHg 80%
    17:00 +3°C° 0.4 mm 5 m/S 727 mmHg 82%
    18:00 +3°C° 0.3 mm 5 m/S 727 mmHg 83%
    19:00 +4°C° 0.3 mm 4 m/S 727 mmHg 85%
    20:00 +4°C° 0.3 mm 4 m/S 727 mmHg 87%
    21:00 +4°C° 0.2 mm 3 m/S 727 mmHg 89%
    22:00 +4°C° 0.2 mm 3 m/S 727 mmHg 90%
    23:00 +4°C° 0.2 mm 3 m/S 727 mmHg 91%
    Mehr zeigen